CDT,Max TemperatureF,Mean TemperatureF,Min TemperatureF,Max Dew PointF,MeanDew PointF,Min DewpointF,Max Humidity, Mean Humidity, Min Humidity, Max Sea Level PressureIn, Mean Sea Level PressureIn, Min Sea Level PressureIn, Max VisibilityMiles, Mean VisibilityMiles, Min VisibilityMiles, Max Wind SpeedMPH, Mean Wind SpeedMPH, Max Gust SpeedMPH,PrecipitationIn, CloudCover, Events, WindDirDegrees
2014-4-1,39,30,20,18,15,11,68,56,44,30.17,30.09,29.94,10,10,10,35,10,40,0.00,3,,336
2014-4-2,46,36,25,38,29,16,92,66,40,30.13,29.94,29.83,10,8,2,22,11,27,T,6,,73
2014-4-3,39,36,33,37,33,31,96,93,89,29.90,29.81,29.75,6,2,0,29,16,36,0.88,8,Fog-Rain-Snow,353
2014-4-4,45,36,27,31,28,25,89,69,49,30.15,30.02,29.86,10,8,1,33,14,38,T,6,Snow,322
2014-4-5,63,45,27,33,29,25,85,58,30,30.13,30.01,29.88,10,10,6,28,15,40,0.00,0,,167
2014-4-6,65,54,43,44,37,29,86,62,37,29.93,29.85,29.76,10,9,3,31,13,39,0.06,4,Rain,200
2014-4-7,62,50,38,41,33,22,92,58,24,29.99,29.87,29.80,10,10,10,29,13,36,0.00,3,,320
2014-4-8,58,47,35,32,27,18,82,52,21,30.15,30.07,29.99,10,10,10,24,11,29,0.00,2,,322
2014-4-9,82,61,39,33,26,19,45,30,14,30.03,29.79,29.55,10,10,10,28,16,34,0.00,0,,197
2014-4-10,67,56,44,37,28,20,70,43,16,29.99,29.88,29.63,10,10,10,29,10,39,0.00,1,,345
2014-4-11,76,57,37,36,29,22,79,47,14,30.01,29.91,29.70,10,10,5,22,10,28,0.00,0,,207
2014-4-12,80,65,50,50,42,34,71,47,23,29.68,29.59,29.52,10,8,4,26,13,33,0.00,0,,8
2014-4-13,55,43,30,45,33,23,92,78,63,30.07,29.82,29.68,10,6,0,38,25,48,0.62,8,Fog-Rain-Snow,357
2014-4-14,41,33,25,28,19,14,70,57,43,30.27,30.18,30.10,10,9,2,32,13,41,T,4,Snow,334
2014-4-15,55,37,19,31,22,16,84,58,32,30.23,30.04,29.73,10,10,9,26,13,33,0.00,0,,160
2014-4-16,57,44,31,34,27,22,72,53,34,30.18,29.78,29.61,10,10,10,33,22,41,T,4,Rain,261
2014-4-17,53,42,30,24,22,20,78,52,26,30.36,30.28,30.20,10,10,10,23,9,26,0.00,4,,21
2014-4-18,70,51,32,40,34,24,75,54,33,30.26,30.12,29.96,10,9,5,30,17,40,0.00,0,,160
2014-4-19,74,64,53,49,44,39,60,51,41,30.01,29.96,29.92,10,9,6,26,11,35,0.00,3,,177
2014-4-20,82,66,50,59,50,44,80,57,33,29.96,29.91,29.86,10,10,2,30,6,34,0.09,2,Rain-Thunderstorm,210
2014-4-21,73,59,44,53,35,24,86,52,17,30.15,30.03,29.85,10,10,10,30,14,37,0.00,0,,340
2014-4-22,70,54,37,34,30,28,76,49,22,30.17,30.06,29.89,10,10,10,22,11,28,0.00,2,,132
2014-4-23,73,62,51,53,42,32,80,59,38,29.88,29.68,29.52,10,10,7,38,21,51,0.32,3,Rain-Thunderstorm,140
2014-4-24,69,56,43,53,41,24,93,56,18,29.81,29.70,29.62,10,8,2,30,14,35,0.75,4,Rain,315
2014-4-25,76,57,38,40,35,32,85,53,21,29.83,29.78,29.73,10,10,10,9,4,13,0.00,1,,86
2014-4-26,80,65,50,56,44,34,66,49,32,29.75,29.58,29.41,10,10,10,32,19,43,0.00,0,,117
2014-4-27,71,66,61,57,54,44,84,69,53,29.39,29.27,29.18,10,10,10,40,21,52,T,5,Rain-Thunderstorm,125
2014-4-28,69,58,46,57,50,40,93,65,37,29.45,29.25,29.17,10,8,2,26,13,34,0.49,7,Rain-Thunderstorm,74
2014-4-29,46,42,37,44,38,35,93,88,82,29.94,29.71,29.47,10,9,3,31,21,38,0.19,8,Rain,346
2014-4-30,47,44,40,38,34,30,86,72,58,30.00,29.97,29.92,10,10,10,33,20,42,0.01,7,Rain,322